Weather History for Guthrie, OK

Change the Weather History Date:

Sunday, March 24, 2013

  Actual Average Record
Temperature  
Mean Temperature 36 °F -  
Max Temperature 43 °F 63 °F 87 °F (1959)
Min Temperature 30 °F 40 °F 20 °F (1966)
Degree Days  
Heating Degree Days 29    
Moisture  
Dew Point 25 °F    
Average Humidity 72    
Maximum Humidity 93    
Minimum Humidity 38    
Precipitation  
Precipitation 0.01 in - - ()
Sea Level Pressure  
Sea Level Pressure 30.05 in    
Wind  
Wind Speed 13 mph (NNW)    
Max Wind Speed 20 mph    
Max Gust Speed 34 mph    
Visibility 6 miles    
Events Rain , Snow    
Averages and records for this station are not official NWS values.
T = Trace of Precipitation, MM = Missing Value Source: NWS Daily Summary

Daily Weather History Graph

Daily Weather History Graph

Search for Another Location

Airport:

Trip Planner

Search our weather history database for the weather conditions in past years. The results will help you decide how hot, cold, wet, or windy it might be!

Date:

Astronomy

Mar. 24, 2013 Rise Set
Actual Time 7:27 AM CDT 7:45 PM CDT
Civil Twilight 7:01 AM CDT 8:10 PM CDT
Nautical Twilight 6:31 AM CDT 8:40 PM CDT
Astronomical Twilight 6:01 AM CDT 9:11 PM CDT
Moon 5:18 PM CDT (3/24) 5:33 AM CDT (3/24)
Length of Visible Light 13h 09m
Length of Day
12h 17m
Waxing Gibbous, 92% of the Moon is Illuminated
Mar 24
Waxing Gibbous
Mar 27
Full
Apr 2
Last Quarter
Apr 10
New
Apr 18
First Quarter

Hourly Weather History & Observations

Time (CDT) Temp. Windchill Dew Point Humidity Pressure Visibility Wind Dir Wind Speed Gust Speed Precip Events Conditions
12:29 AM 35.6 °F 26.6 °F 33.8 °F 93% 29.90 in 2.5 mi NW 13.8 mph 20.7 mph 0.01 in Rain Light Rain
12:53 AM 35.1 °F 25.5 °F 32.0 °F 89% 29.91 in 2.5 mi NW 15.0 mph 19.6 mph 0.01 in   Overcast
1:34 AM 33.8 °F 24.8 °F 32.0 °F 93% 29.90 in 1.2 mi NW 12.7 mph 19.6 mph 0.00 in Snow Light Snow
1:48 AM 33.8 °F 23.5 °F 30.2 °F 87% 29.90 in 3.0 mi NNW 16.1 mph 25.3 mph 0.00 in Snow Light Snow
1:53 AM 34.0 °F 25.5 °F 30.9 °F 89% 29.93 in 4.0 mi NW 11.5 mph 25.3 mph 0.00 in   Overcast
2:14 AM 33.8 °F 25.3 °F 30.2 °F 87% 29.92 in 1.8 mi NW 11.5 mph 26.5 mph 0.00 in Snow Light Snow
2:53 AM 34.0 °F 24.2 °F 30.0 °F 85% 29.95 in 2.0 mi NNW 15.0 mph 25.3 mph 0.00 in Snow Light Snow
3:00 AM 33.8 °F 23.9 °F 30.2 °F 87% 29.93 in 3.0 mi NNW 15.0 mph 26.5 mph 0.00 in Snow Light Snow
3:27 AM 33.8 °F 26.4 °F 30.2 °F 87% 29.93 in 2.5 mi NNW 9.2 mph 19.6 mph 0.00 in Snow Light Snow
3:37 AM 33.8 °F 25.3 °F 30.2 °F 87% 29.93 in 3.0 mi NNW 11.5 mph 27.6 mph 0.00 in Snow Light Snow
3:44 AM 33.8 °F 25.8 °F 30.2 °F 87% 29.93 in 2.5 mi NNW 10.4 mph 21.9 mph 0.00 in Snow Light Snow
3:50 AM 33.8 °F 25.8 °F 30.2 °F 87% 29.93 in 3.0 mi NNW 10.4 mph 24.2 mph 0.00 in Snow Light Snow
3:53 AM 34.0 °F 25.5 °F 30.0 °F 85% 29.96 in 3.0 mi NNW 11.5 mph 24.2 mph 0.00 in Snow Light Snow
4:19 AM 33.8 °F 23.5 °F 28.4 °F 81% 29.94 in 7.0 mi NNW 16.1 mph 28.8 mph 0.00 in Rain Light Freezing Rain
4:38 AM 33.8 °F 23.9 °F 28.4 °F 81% 29.94 in 7.0 mi NNW 15.0 mph 25.3 mph 0.00 in Rain Light Freezing Rain
4:53 AM 33.1 °F 23.4 °F 28.9 °F 85% 29.97 in 4.0 mi NNW 13.8 mph 26.5 mph 0.00 in Snow Light Snow
5:09 AM 33.8 °F 23.2 °F 28.4 °F 81% 29.95 in 2.5 mi NNW 17.3 mph 28.8 mph 0.00 in Snow Light Snow
5:30 AM 32.0 °F 20.8 °F 28.4 °F 87% 29.96 in 3.0 mi NNW 17.3 mph 33.4 mph 0.00 in Snow Light Snow
5:53 AM 33.1 °F 22.2 °F 27.0 °F 78% 29.99 in 7.0 mi NNW 17.3 mph 26.5 mph 0.00 in   Overcast
6:53 AM 30.9 °F 18.7 °F 25.0 °F 79% 30.04 in 8.0 mi NNW 19.6 mph 32.2 mph N/A   Overcast
7:53 AM 30.0 °F 20.0 °F 24.1 °F 79% 30.08 in 9.0 mi NNW 12.7 mph 28.8 mph N/A   Overcast
8:53 AM 30.0 °F 20.0 °F 23.0 °F 75% 30.13 in 8.0 mi NW 12.7 mph 26.5 mph N/A   Overcast
9:53 AM 30.9 °F 19.8 °F 21.9 °F 69% 30.15 in 9.0 mi NNW 16.1 mph 27.6 mph N/A   Overcast
10:53 AM 32.0 °F 22.1 °F 23.0 °F 69% 30.17 in 8.0 mi NNW 13.8 mph 26.5 mph N/A   Overcast
11:53 AM 34.0 °F 24.6 °F 23.0 °F 64% 30.19 in 9.0 mi NNW 13.8 mph 24.2 mph N/A   Mostly Cloudy
12:53 PM 36.0 °F 25.6 °F 21.9 °F 57% 30.19 in 10.0 mi NW 18.4 mph 26.5 mph N/A   Mostly Cloudy
1:25 PM 37.4 °F 27.8 °F 21.2 °F 52% 30.15 in 10.0 mi NW 17.3 mph 34.5 mph N/A   Scattered Clouds
1:53 PM 37.9 °F 28.9 °F 21.9 °F 53% 30.16 in 10.0 mi NNW 16.1 mph 27.6 mph N/A   Partly Cloudy
2:53 PM 39.9 °F 31.8 °F 21.0 °F 47% 30.15 in 10.0 mi NNW 15.0 mph 24.2 mph N/A   Clear
3:53 PM 41.0 °F 33.1 °F 17.1 °F 38% 30.13 in 10.0 mi NNW 15.0 mph 25.3 mph N/A   Clear
4:53 PM 42.1 °F 34.9 °F 18.0 °F 38% 30.15 in 10.0 mi NNW 13.8 mph 21.9 mph N/A   Clear
5:53 PM 41.0 °F 33.9 °F 17.1 °F 38% 30.15 in 10.0 mi NNW 12.7 mph 21.9 mph N/A   Clear
7:53 PM 37.0 °F 30.4 °F 17.1 °F 44% 30.21 in 10.0 mi NNW 9.2 mph - 0.00 in   Clear
8:53 PM 35.1 °F 30.1 °F 18.0 °F 50% 30.20 in 10.0 mi North 5.8 mph - N/A   Clear
9:53 PM 33.1 °F 30.0 °F 19.0 °F 56% 30.24 in 10.0 mi North 3.5 mph - N/A   Clear
10:53 PM 30.0 °F - 18.0 °F 61% 30.26 in 10.0 mi Calm Calm - N/A   Clear
11:53 PM 30.0 °F 25.2 °F 19.0 °F 64% 30.25 in 10.0 mi NNW 4.6 mph - N/A   Clear